Regional Weather Roundup
Issued by NWS Mobile, AL

Home | Current Version | Previous Version | Text Only | Print | Product List | Glossary On
Versions: 1 2 3 4 5 6 7 8 9 10 11 12 13 14 15 16 17 18 19 20 21 22 23 24 25 26 27
000
ASUS44 KMOB 281813
RWRMOB
REGIONAL WEATHER ROUNDUP
NATIONAL WEATHER SERVICE MOBILE AL
100 PM CDT FRI JUL 28 2017

NOTE: "FAIR" INDICATES FEW OR NO CLOUDS BELOW 12,000 FEET WITH NO
      SIGNIFICANT WEATHER AND/OR OBSTRUCTIONS TO VISIBILITY.

  * THESE STATIONS ARE PART OF THE UNIVERSITY OF SOUTH ALABAMA
    MESONET AND ARE NOT UNDER NWS OR FAA QUALITY CONTROL.

ALZ061>064-281900-
COASTAL ALABAMA

CITY           SKY/WX    TMP DP  RH WIND       PRES   REMARKS
MOBILE REG APT PTSUNNY   92  70  48 VRB7      29.95F HX  97
6HR MIN TEMP:  76; 6HR MAX TEMP:  92;

BROOKLEY FIELD MOSUNNY   93  71  48 W8        29.95F HX 100
6HR MIN TEMP:  77; 6HR MAX TEMP:  94;

USA CAMPUS*      N/A     91  70  49 SW3       29.94F HX  97
DOG RIVER*     NOT AVBL


CITY           SKY/WX    TMP DP  RH WIND       PRES   REMARKS
GULF SHORES    SUNNY     91  74  56 W15G22    29.94F HX 100

$$

ALZ051>060-281900-
INTERIOR SOUTHWEST AND SOUTH CENTRAL ALABAMA

CITY           SKY/WX    TMP DP  RH WIND       PRES   REMARKS
GREENVILLE     CLOUDY    89  69  51 CALM      29.93F
6HR MIN TEMP:  77; 6HR MAX TEMP:  92;

EVERGREEN      CLOUDY    91  65  41 VRB7      29.94F
6HR MIN TEMP:  73; 6HR MAX TEMP:  93;

ATMORE*        NOT AVBL
ANDALUSIA/OPP  PTSUNNY   94  72  48 W9        29.93F HX 102
6HR MIN TEMP:  78; 6HR MAX TEMP:  95;

ANDALUSIA*       N/A     90  70  51 NW6       29.95F HX  95
FLORALA APT    MOSUNNY   92  72  51 VRB5      29.95F HX  99
6HR MIN TEMP:  76; 6HR MAX TEMP:  92;

FLORALA*         N/A     91  72  52 W6        30.59F HX  98

$$

FLZ001>006-281900-
WESTERN FLORIDA PANHANDLE

CITY           SKY/WX    TMP DP  RH WIND       PRES   REMARKS
PENSACOLA      MOSUNNY   94  71  47 W15       29.93F HX 101
6HR MIN TEMP:  80; 6HR MAX TEMP:  95;

NAS PENSACOLA  PTSUNNY   93  72  50 VRB6      29.92F HX 101
6HR MIN TEMP:  79; 6HR MAX TEMP:  94;

MILTON         PTSUNNY   93  73  52 N7        29.93F HX 102
6HR MIN TEMP:  75; 6HR MAX TEMP:  93;

WHTNG S FIELD  PTSUNNY   94  73  50 W6        29.93F HX 103
6HR MIN TEMP:  78; 6HR MAX TEMP:  96;



CITY           SKY/WX    TMP DP  RH WIND       PRES   REMARKS
JAY*             N/A     91  68  46 NW8       29.93F HX  95
DUKE FIELD     MOSUNNY   94  71  47 W8        29.92F HX 100
CRESTVIEW      MOSUNNY   95  71  45 NW10      29.94F HX 102
6HR MIN TEMP:  75; 6HR MAX TEMP:  95;

VALPARAISO     MOSUNNY   92  75  58 W5        29.92F HX 103
6HR MIN TEMP:  77; 6HR MAX TEMP:  94;

DESTIN         SUNNY     93  77  59 VRB7      29.92F HX 107
6HR MIN TEMP:  83; 6HR MAX TEMP:  95;


$$

MSZ076-079-281900-
INTERIOR SOUTHEAST MISSISSIPPI

CITY           SKY/WX    TMP DP  RH WIND       PRES   REMARKS
LEAKESVILLE*   NOT AVBL
AGRICOLA*        N/A     90  72  55 NW7       29.94  HX  96

$$

MARINE OBSERVATIONS

STATION/POSITION TIME  TEMP    WIND        PRES    WAVE
                       AIR SEA DIR/SP/G            HT/PER
                 (UTC) (F)     (DEG/KT/KT) (MB)    (FT/S)
PASCAGOULA       1748   89     220/  8/ 11 1013.9F
PETIT BOIS ISLND 1748   87     260/  6/  8 1015.0F
GRAND BAY        1645   91     240/  5     1016.0S
KATRINA CUT      1730   86     260/  7     1014.6F
CEDAR POINT      1730   86     260/  9     1014.2F
E DAUPHIN ISLAND 1700   87     280/  8/  9 1014.5F
MIDDLE BAY LIGHT 1730   89     280/  8     1014.2F
USCG MOBILE BAY  1748   91 84  260/  8/ 11 1014.4F
STATE DOCKS      1742   98 85              1013.7F
MEAHER PARK      1730   90     270/  3     1013.5F
WEEKS BAY        1645   90                   N/A
FORT MORGAN      1748   86     270/ 11/ 12   N/A
12 S ORANGE BCH  1650   85 87  300/ 12/ 14 1014.3F   2/ 4
PENSACOLA BAY    1742   93 87              1013.7F
64 S DAUPHIN ISL 1750   86 87  290/  4/  6 1014.5F   1/ 6
67 S FORT MORGAN 1730   86        CALM     1014.9F

$$

SELECTED LOCATIONS ACROSS THE REGION

CITY           SKY/WX    TMP DP  RH WIND       PRES   REMARKS
NEW ORLEANS    MOSUNNY   92  71  50 VRB6      29.95F HX  98
GULFPORT       SUNNY     94  71  47 NW10      29.93F HX 101
PASCAGOULA AP  SUNNY     94  71  47 VRB5      29.93F HX 101
PASCAGOULA*      N/A     90  75  62 S7          N/A  HX 100
HATTIESBURG    SUNNY     91  74  57 W13       29.94F HX 100
LAUREL         MOSUNNY   91  76  61 VRB5      29.96F HX 103
MERIDIAN       CLOUDY    91  77  63 W10       29.93F HX 104
JACKSON        CLOUDY    88  76  67 SW7       29.95F HX  99
MONTGOMERY     CLOUDY    92  73  53 W8        29.92F HX 100
TROY           PTSUNNY   90  72  55 W8        29.94F HX  97
ASHFORD*         N/A     90  70  51 NW6       29.95F HX  95
DOTHAN         CLOUDY    91  73  55 NW12      29.96F HX  99
PANAMA CITY    MOSUNNY   94  73  50 SW8       29.91F HX 103

$$





USA.gov is the U.S. government's official web portal to all federal, state and local government web resources and services.